Home > Weather > Watford > Past weeks

Flag for United Kingdom Past Weather in Watford, England, United Kingdom — Yesterday and Last 2 Weeks

Now
68 °F

Broken clouds.


Feels Like: 68 °F
Forecast: 52 / 60 °F
Wind: 13 mph from Southwest

Location: Northolt

Current Time: Jun 28, 2016 at 4:07:46 PM

Latest Report: Jun 28, 2016 at 2:50 PM


Visibility: N/A

Pressure: 29.89 "Hg

Humidity: 46%

Dew Point: 46 °F

Location of WatfordLocation

Past Weather in Watford — Graph

°F

Watford Temperature Yesterday

Maximum temperature yesterday: 70 °F (at 4:50 PM)
Minimum temperature yesterday: 57 °F (at 12:50 AM)
Average temperature yesterday: 63 °F

High & Low Weather Summary for the Past Weeks

 TemperatureHumidityPressure
High72 °F (Jun 22, 4:50 PM)100% (Jun 14, 2:50 AM)30.24 "Hg (Jun 14, 2:50 AM)
Low48 °F (Jun 28, 4:50 AM)40% (Jun 28, 12:50 PM)29.36 "Hg (Jun 14, 4:50 PM)
Average61 °F79%29.89 "Hg
* Reported Jun 13 1:50 PM — Jun 28 1:50 PM, Watford, Weather by CustomWeather, © 2016

Note: Actual official high and low records may vary slightly from our data, if they occured in-between our weather recording intervals... More about our weather records

Advertising

Watford Weather History for the Previous 24 Hours

Scroll right to see more
 ConditionsComfort  
Time TempWeatherWind HumidityBarometerVisibility
1:50 PM
Tue, Jun 28
70 °FBroken clouds.10 mph50%29.92 "HgN/A
12:50 PM68 °FSunny.10 mph40%29.95 "Hg10 mi
11:50 AM68 °FScattered clouds.8 mph46%29.98 "HgN/A
10:50 AM66 °FPartly sunny.7 mph49%30.01 "HgN/A
9:50 AM64 °FPartly sunny.6 mph56%30.01 "HgN/A
8:50 AM61 °FPartly sunny.2 mph59%30.04 "HgN/A
7:50 AM57 °FSunny.1 mph77%30.04 "Hg10 mi
6:50 AM54 °FSunny.1 mph82%30.07 "Hg10 mi
5:50 AM48 °FSunny.3 mph94%30.07 "HgN/A
4:50 AM48 °FClear.2 mph94%30.07 "HgN/A
3:50 AM50 °FClear.1 mph88%30.07 "HgN/A
2:50 AM52 °FClear.2 mph88%30.07 "HgN/A
1:50 AM54 °FPassing clouds.1 mph82%30.09 "HgN/A
12:50 AM57 °FPassing clouds.3 mph72%30.09 "HgN/A
11:50 PM
Mon, Jun 27
57 °FPartly cloudy.5 mph72%30.09 "HgN/A
10:50 PM59 °FClear.5 mph68%30.09 "Hg10 mi
9:50 PM61 °FSunny.6 mph63%30.09 "Hg10 mi
8:50 PM63 °FSunny.5 mph59%30.09 "Hg10 mi
7:50 PM64 °FSunny.7 mph52%30.07 "Hg10 mi
6:50 PM66 °FSunny.9 mph46%30.07 "Hg10 mi
5:50 PM68 °FSunny.10 mph43%30.07 "Hg10 mi
4:50 PM70 °FBroken clouds.12 mph46%30.07 "HgN/A
Weather by CustomWeather, © 2016

See weather overviewHow to use our weather pages